[[{"header":{"parameterUnit":"m.s-1","parameterCategory":1,"la1":30.2991,"la2":30.254,"lo1":-89.0895,"lo2":-89.0444,"dy":0.0017,"dx":0.0017,"nx":28,"ny":28,"refTime":"2025-03-01T03:00:00:Z","depth":0,"parameterNumber":2,"parameterNumberName":"U-component_of_WINDS"},"data":[0,0,0,0,0,0,0,0,0,0,0,0,0,0,0,0,0,0,0,0,0,0,0,0,0,0,0,0,0,0,0,0,0,0,0,0,0,0,0,0,0,0,0,0,0,0,0,0,0,0,0,0,0,0,0,0,0,0,-0.8785,-0.8784,0,-0.8717,-0.8717,-0.8716,-0.8659,-0.8658,-0.8658,-0.8657,-0.8588,-0.8587,-0.8586,0,0,0,0,0,0,0,0,0,0,0,0,0,-0.8866,-0.8865,-0.8785,-0.8784,-0.8783,-0.8717,-0.8716,-0.8716,-0.8659,-0.8658,-0.8657,-0.8657,-0.8588,-0.8587,-0.8585,0,0,0,0,0,0,0,0,0,0,0,0,0,-0.8818,-0.8865,-0.8785,-0.8747,-0.8743,-0.8718,-0.8716,-0.8715,-0.8659,-0.8658,-0.8657,-0.8656,-0.8589,-0.8587,-0.8585,-0.8592,0,0,-0.858,-0.8579,0,0,0,0,0,0,0,0,-0.8821,-0.8815,-0.8753,-0.875,-0.8745,-0.8695,-0.872,-0.8674,-0.8659,-0.8691,-0.8657,-0.8656,-0.8625,-0.862,-0.8609,-0.8589,-0.8586,-0.8579,-0.8578,-0.8577,-0.8577,0,0,0,0,0,0,0,-0.8824,-0.8818,-0.8758,-0.8753,-0.8747,-0.8734,-0.8726,-0.8711,-0.8664,-0.8688,-0.8684,-0.8677,-0.8622,-0.8611,-0.8607,-0.8585,-0.8579,-0.8578,-0.8577,-0.8576,-0.857,-0.8571,0,0,0,0,0,0,-0.8833,-0.8821,-0.876,-0.8756,-0.8781,-0.8733,-0.8724,-0.8712,-0.8664,-0.8656,-0.8677,-0.8674,-0.8615,-0.8609,-0.8604,-0.8611,-0.8577,-0.8576,-0.8575,-0.8569,-0.857,-0.8571,0,0,0,0,0,0,-0.8835,-0.8828,-0.8763,-0.8787,-0.8778,-0.8733,-0.872,-0.8711,-0.87,-0.8656,-0.8647,-0.8675,-0.8614,-0.8607,-0.8596,-0.8608,-0.8575,-0.8573,-0.8568,-0.8569,-0.857,-0.8624,0,0,0,0,0,0,-0.8838,-0.8829,-0.8831,-0.8788,-0.8777,-0.8756,-0.872,-0.8711,-0.8697,-0.8692,-0.8651,-0.8643,-0.8613,-0.8599,-0.8594,-0.8605,-0.8572,-0.8566,-0.8568,-0.857,-0.8621,-0.8627,-0.8633,0,0,0,0,0,-0.8841,-0.8849,-0.8832,-0.8825,-0.8778,-0.8757,-0.875,-0.8715,-0.8698,-0.87,-0.8672,-0.8645,-0.8607,-0.8599,-0.8593,-0.8603,-0.8565,-0.8568,-0.857,-0.8619,-0.8626,-0.8633,0,0,0,0,0,0,-0.8895,-0.8842,-0.8823,-0.8817,-0.8792,-0.8747,-0.8748,-0.8724,-0.8703,-0.8699,-0.8656,-0.8647,-0.8641,-0.862,-0.8612,-0.8608,-0.8583,-0.8584,-0.8622,-0.8629,-0.8634,-0.864,-0.857,0,0,0,0,0,-0.8906,-0.8893,-0.8847,-0.8847,-0.8835,-0.8794,-0.8783,-0.8758,-0.873,-0.8719,-0.869,-0.8664,-0.8647,-0.8636,-0.8618,-0.8617,-0.8609,-0.8621,-0.8627,-0.8632,-0.8634,-0.8635,-0.8641,-0.8578,-0.8578,-0.8578,0,0,-0.8929,-0.8899,-0.8893,-0.8857,-0.8834,-0.8822,-0.8785,-0.8774,-0.8765,-0.8717,-0.8706,-0.8684,-0.8652,-0.8647,-0.8644,-0.863,-0.8649,-0.8635,-0.8639,-0.8638,-0.8638,-0.8644,-0.8649,-0.8579,-0.8579,-0.8579,0,0,-0.8966,-0.8941,-0.8938,-0.8917,-0.8883,-0.8856,-0.8855,-0.8815,-0.8798,-0.8786,-0.8751,-0.8739,-0.871,-0.8689,-0.8675,-0.8705,-0.868,-0.87,-0.873,-0.8731,-0.8736,-0.8741,-0.8754,-0.8758,-0.8702,-0.8702,-0.8702,0,-0.8999,-0.8979,-0.894,-0.8931,-0.8917,-0.8874,-0.8872,-0.8852,-0.8815,-0.8806,-0.8791,-0.8754,-0.873,-0.8721,-0.8728,-0.8717,-0.8717,-0.8705,-0.8739,-0.8743,-0.8746,-0.8758,-0.8763,-0.8705,-0.8704,-0.8704,-0.8704,0,-0.9023,-0.9009,-0.9011,-0.8977,-0.8962,-0.8957,-0.8918,-0.8908,-0.8884,-0.8859,-0.8848,-0.8817,-0.8793,-0.8788,-0.8764,-0.8776,-0.8769,-0.8747,-0.8721,-0.8756,-0.8766,-0.877,-0.8709,-0.8708,-0.8707,-0.8706,0,0,-0.9092,-0.9036,-0.9038,-0.9023,-0.8983,-0.8972,-0.8965,-0.8941,-0.8935,-0.891,-0.8904,-0.888,-0.886,-0.8844,-0.8817,-0.8818,-0.8847,-0.8796,-0.8795,-0.8809,-0.8861,-0.8879,-0.8885,-0.8829,-0.883,-0.883,-0.8864,0,-0.9124,-0.9109,-0.9074,-0.907,-0.9059,-0.9018,-0.9012,-0.8987,-0.8963,-0.895,-0.8924,-0.8909,-0.8882,-0.8872,-0.8871,-0.8844,-0.8857,-0.884,-0.8825,-0.8825,-0.8836,-0.889,-0.8909,-0.8943,-0.8868,-0.8868,-0.8869,0,-0.9159,-0.9138,-0.9133,-0.9096,-0.909,-0.9085,-0.9061,-0.9049,-0.902,-0.9003,-0.8986,-0.8957,-0.8948,-0.8923,-0.8911,-0.8901,-0.8892,-0.8878,-0.8878,-0.8877,-0.8851,-0.8893,-0.8953,-0.8959,-0.8874,-0.8874,-0.8873,0,-0.9214,-0.9183,-0.9177,-0.9165,-0.912,-0.9118,-0.91,-0.907,-0.9059,-0.9038,-0.903,-0.9008,-0.8997,-0.8981,-0.8947,-0.8931,-0.894,-0.8911,-0.8927,-0.8928,-0.8932,-0.8933,-0.8994,-0.8923,-0.8923,-0.8923,-0.8923,0,-0.9254,-0.9254,-0.9202,-0.9198,-0.9197,-0.9156,-0.9156,-0.9134,-0.9108,-0.91,-0.9062,-0.9056,-0.901,-0.8999,-0.8972,-0.8968,-0.8962,-0.8949,-0.8943,-0.8954,-0.8956,-0.895,-0.8947,-0.8924,-0.8924,-0.8924,-0.8923,0,-0.9316,-0.928,-0.9271,-0.923,-0.922,-0.9221,-0.9185,-0.9181,-0.9155,-0.9146,-0.9141,-0.91,-0.9085,-0.9049,-0.9024,-0.9006,-0.901,-0.8996,-0.902,-0.9016,-0.9034,-0.9034,-0.9095,-0.9102,-0.9025,-0.9025,-0.9026,0,-0.9345,-0.9344,-0.9303,-0.9295,-0.9278,-0.9265,-0.9253,-0.9214,-0.9203,-0.9171,-0.9171,-0.9153,-0.9136,-0.9114,-0.9082,-0.9063,-0.905,-0.9073,-0.9047,-0.906,-0.9054,-0.9056,-0.9056,-0.908,-0.9081,-0.9081,-0.9082,0,-0.9402,-0.9385,-0.9369,-0.9348,-0.9335,-0.9317,-0.9296,-0.9292,-0.9247,-0.9237,-0.9221,-0.9208,-0.9183,-0.9166,-0.9142,-0.9124,-0.9097,-0.909,-0.9093,-0.9106,-0.9121,-0.9116,-0.9038,-0.909,-0.9089,-0.9088,-0.9088,-0.9088,-0.945,-0.9448,-0.9419,-0.9404,-0.9384,-0.9366,-0.936,-0.9333,-0.9319,-0.9296,-0.9273,-0.926,-0.9233,-0.9198,-0.9181,-0.9171,-0.9157,-0.9161,-0.9162,-0.9165,-0.9171,-0.9121,-0.9166,-0.9166,-0.9166,-0.9165,-0.9165,0,-0.9508,-0.9487,-0.9473,-0.9446,-0.9434,-0.9408,-0.9384,-0.9376,-0.9365,-0.9342,-0.9326,-0.9309,-0.9293,-0.926,-0.9241,-0.9239,-0.9226,-0.9236,-0.9237,-0.9233,-0.9183,-0.9184,-0.9247,-0.9246,-0.9246,-0.9246,-0.9246,-0.9246,-0.9536,-0.9532,-0.9512,-0.9498,-0.9477,-0.9464,-0.9453,-0.9437,-0.9418,-0.9401,-0.9387,-0.9365,-0.9339,-0.9317,-0.9302,-0.9292,-0.9288,-0.9303,-0.929,-0.9244,-0.9236,-0.9229,-0.923,-0.9301,-0.9301,-0.9341,-0.9342,-0.9342]},{"header":{"parameterUnit":"m.s-1","parameterCategory":1,"la1":30.2991,"la2":30.254,"lo1":-89.0895,"lo2":-89.0444,"dy":0.0017,"dx":0.0017,"nx":28,"ny":28,"refTime":"2025-03-01T03:00:00:Z","depth":0,"parameterNumber":3,"parameterNumberName":"V-component_of_WINDS"},"data":[0,0,0,0,0,0,0,0,0,0,0,0,0,0,0,0,0,0,0,0,0,0,0,0,0,0,0,0,0,0,0,0,0,0,0,0,0,0,0,0,0,0,0,0,0,0,0,0,0,0,0,0,0,0,0,0,0,0,1.6331,1.633,0,1.6214,1.6213,1.6211,1.6144,1.6144,1.6144,1.6144,1.6017,1.6013,1.601,0,0,0,0,0,0,0,0,0,0,0,0,0,1.6489,1.6487,1.6331,1.633,1.6328,1.6214,1.6213,1.6211,1.6144,1.6144,1.6144,1.6144,1.6018,1.6014,1.601,0,0,0,0,0,0,0,0,0,0,0,0,0,1.6401,1.6486,1.6331,1.6281,1.6276,1.6215,1.6213,1.6211,1.6144,1.6144,1.6144,1.6144,1.6019,1.6014,1.6009,1.5987,0,0,1.5995,1.5993,0,0,0,0,0,0,0,0,1.6406,1.6395,1.629,1.6285,1.6278,1.6194,1.6222,1.6135,1.6145,1.6194,1.6144,1.6143,1.6075,1.6066,1.6044,1.5981,1.5975,1.5994,1.5992,1.599,1.5988,0,0,0,0,0,0,0,1.6412,1.64,1.6284,1.6289,1.6281,1.6262,1.6249,1.6205,1.6138,1.619,1.6185,1.6172,1.6072,1.6049,1.6041,1.5973,1.5995,1.599,1.5987,1.5986,1.5883,1.5883,0,0,0,0,0,0,1.6427,1.6406,1.6288,1.6281,1.6343,1.626,1.6245,1.6221,1.6138,1.6125,1.6173,1.6169,1.6057,1.6046,1.6036,1.6002,1.599,1.5985,1.5982,1.5883,1.5883,1.5883,0,0,0,0,0,0,1.6431,1.6418,1.6293,1.6342,1.6325,1.6257,1.6231,1.6219,1.6196,1.6125,1.6112,1.6162,1.6057,1.6043,1.6,1.5997,1.5983,1.5979,1.5883,1.5883,1.5883,1.5936,0,0,0,0,0,0,1.6436,1.6419,1.6412,1.6342,1.6322,1.6261,1.6231,1.6217,1.6189,1.6184,1.6112,1.61,1.6055,1.6007,1.5995,1.599,1.5975,1.5882,1.5883,1.5883,1.5934,1.5938,1.5942,0,0,0,0,0,1.6442,1.643,1.6412,1.6398,1.6312,1.6261,1.6249,1.6201,1.6189,1.618,1.6134,1.6102,1.6,1.6003,1.5989,1.5983,1.5882,1.5883,1.5883,1.5933,1.5938,1.5942,0,0,0,0,0,0,1.6499,1.642,1.6399,1.6365,1.6321,1.625,1.6236,1.6207,1.6163,1.616,1.6099,1.6084,1.6046,1.601,1.6015,1.5955,1.5937,1.5935,1.598,1.5984,1.5988,1.5996,1.5971,0,0,0,0,0,1.6508,1.6476,1.6408,1.6384,1.6363,1.6304,1.628,1.6247,1.6197,1.6177,1.6128,1.6079,1.6035,1.6008,1.5964,1.5929,1.5911,1.5918,1.5922,1.5925,1.5923,1.59,1.5901,1.5884,1.5884,1.5884,0,0,1.6526,1.6479,1.6461,1.6395,1.6356,1.6321,1.6288,1.6253,1.6226,1.6171,1.6127,1.609,1.603,1.5991,1.5971,1.596,1.5924,1.5925,1.5929,1.5924,1.59,1.5902,1.5903,1.5884,1.5884,1.5884,0,0,1.654,1.6502,1.6478,1.644,1.6383,1.6344,1.6338,1.6272,1.6245,1.6201,1.6159,1.6124,1.6051,1.6011,1.598,1.5979,1.5947,1.5966,1.5984,1.5963,1.5964,1.5965,1.5962,1.5962,1.5965,1.5965,1.5965,0,1.6568,1.6517,1.6468,1.6436,1.6406,1.6357,1.6331,1.6296,1.6226,1.6206,1.6196,1.6103,1.6059,1.6009,1.6009,1.5987,1.5976,1.5973,1.5968,1.5969,1.5968,1.5965,1.5965,1.5967,1.5967,1.5967,1.5967,0,1.6553,1.6518,1.6504,1.6441,1.641,1.6381,1.6326,1.63,1.627,1.6231,1.6185,1.6132,1.6076,1.6062,1.6031,1.6006,1.6001,1.598,1.596,1.5974,1.597,1.5968,1.5971,1.597,1.5969,1.5969,0,0,1.6599,1.651,1.6505,1.6476,1.6409,1.6379,1.6347,1.6295,1.6273,1.6226,1.6196,1.6135,1.6116,1.6081,1.6045,1.6027,1.6026,1.6007,1.6005,1.6011,1.5994,1.6009,1.6009,1.6006,1.6005,1.6005,1.5998,0,1.6602,1.6543,1.6499,1.6456,1.6421,1.6374,1.6345,1.63,1.6263,1.6226,1.6184,1.6141,1.612,1.6098,1.6078,1.6031,1.6022,1.6031,1.5974,1.5972,1.5989,1.6007,1.6023,1.6019,1.5997,1.5996,1.5996,0,1.6597,1.6555,1.6509,1.6446,1.6429,1.6405,1.6352,1.6319,1.6266,1.624,1.6202,1.6165,1.6126,1.6111,1.6055,1.6062,1.6036,1.6009,1.6008,1.5999,1.5984,1.5997,1.6017,1.6016,1.5993,1.5994,1.5994,0,1.6633,1.6564,1.6528,1.6504,1.6429,1.6413,1.638,1.6327,1.6298,1.6252,1.6232,1.6181,1.6152,1.6113,1.6062,1.6056,1.601,1.5991,1.5984,1.5986,1.5975,1.5976,1.599,1.5962,1.5962,1.5962,1.5962,0,1.6639,1.6613,1.6543,1.652,1.6488,1.6437,1.6406,1.6369,1.6322,1.629,1.6245,1.6215,1.6151,1.6112,1.6072,1.603,1.6018,1.5994,1.5983,1.5997,1.6,1.5978,1.5976,1.5962,1.5962,1.5962,1.5962,0,1.6673,1.6626,1.6583,1.6516,1.6499,1.6478,1.6419,1.6394,1.6355,1.6315,1.6302,1.6239,1.6192,1.6138,1.6071,1.6044,1.6004,1.599,1.6023,1.6017,1.6013,1.6013,1.6011,1.6007,1.5984,1.5984,1.5984,0,1.668,1.6659,1.6591,1.6567,1.6536,1.6499,1.6469,1.6417,1.6388,1.6326,1.6308,1.6257,1.6214,1.6139,1.6086,1.6035,1.6017,1.602,1.6009,1.6023,1.6015,1.6016,1.6013,1.6023,1.6023,1.6024,1.6024,0,1.6696,1.6674,1.6635,1.6587,1.6554,1.6514,1.6471,1.6453,1.6392,1.6361,1.6313,1.628,1.6213,1.6162,1.6105,1.6068,1.6035,1.6028,1.6024,1.6036,1.6056,1.6044,1.603,1.6028,1.6028,1.6027,1.6027,1.6027,1.6715,1.6694,1.6643,1.66,1.6563,1.6524,1.6497,1.6456,1.6415,1.6359,1.633,1.6282,1.6227,1.6146,1.6111,1.6071,1.606,1.6054,1.6052,1.6051,1.6054,1.6065,1.606,1.606,1.606,1.606,1.606,0,1.6728,1.6693,1.6654,1.6597,1.6563,1.6538,1.6489,1.6462,1.6421,1.6374,1.6333,1.6277,1.6228,1.6172,1.6118,1.6097,1.608,1.6084,1.6084,1.6076,1.6067,1.6076,1.6099,1.6099,1.6099,1.6099,1.6099,1.6099,1.673,1.6692,1.6664,1.6606,1.657,1.6525,1.6499,1.6462,1.6425,1.6365,1.6325,1.6289,1.6238,1.6181,1.6133,1.6118,1.6099,1.6108,1.6088,1.608,1.6077,1.6074,1.6081,1.6105,1.6105,1.6099,1.6099,1.6099]}]]